www.pogodaiklimat.ru

Погода и климат >> Архив погоды >> Норвегия >> Oslo


АРХИВ ПОГОДЫ в Oslo

Время (UTC), дата Ветер
(напр.,м/с)
 
Видим.   Явления Облачность Т
(С)
Тd
(С)
f
(%)
Тe
(С)
Тes
(С)
Комфортность P
(гПа)
Po
(гПа)
Тmin
(С)
Tmax
(С)
R
(мм)
R24
(мм)
S
(см)
23 6.12 С 5
{8}
1200 м снег н/о -0.2 -0.9 95 -7 -7 по сезону 1001.8 989.8 0.8
22 6.12 СВ 4
{7}
900 м снег н/о -0.2 -0.9 95 -6 -6 по сезону 1002.8 990.8 1
00 7.12 СВ 4
{8}
4000 м слаб. снег н/о -0.1 -1.0 94 -6 -6 по сезону 1001.2 989.2 0.4
01 7.12 С 4
{8}
50 км слаб. ледяной дождь н/о -0.1 -1.2 92 -6 -6 по сезону 1000.7 988.7 0.1
02 7.12 СВ 3
{6}
21 км н/о +0.2 -1.2 90 -5 -5 по сезону 1000.8 988.8
03 7.12 С 4
{6}
50 км н/о -0.1 -1.2 92 -6 -6 по сезону 999.9 987.9
05 7.12 СВ 2
{3}
50 км н/о -0.1 -1.5 90 -4 -4 тепло 999.2 987.3
04 7.12 СВ 3
{6}
50 км н/о 0.0 -1.3 91 -5 -5 по сезону 999.4 987.5
06 7.12 З 1
{8}
25 км {снег} 10/10 200 м
[St]
-0.6 -1.7 92 -3 -3 по сезону 1000.1 988.1 -0.9 +0.2
07 7.12 З 1
{3}
50 км н/о -0.7 -1.8 92 -3 -3 тепло 999.9 987.9
08 7.12 В 1
{3}
40 км н/о -0.5 -1.6 92 -3 -3 по сезону 999.1 987.1
09 7.12 СВ 3
{5}
26 км н/о -0.3 -1.3 93 -5 -5 по сезону 997.7 985.8
11 7.12 ЮЗ 1
{3}
20 км н/о -0.3 -1.4 92 -2 -2 тепло 998.0 986.1
10 7.12 З 1
{6}
50 км н/о -0.1 -1.8 88 -2 -2 по сезону 998.5 986.6
12 7.12 ЮВ 1
{6}
55 км {снег} 10/10 300 м
[St]
-0.2 -1.7 90 -2 -2 по сезону 997.9 986.0
13 7.12 В 1
{3}
30 км н/о -0.3 -1.6 91 -2 -2 тепло 996.6 984.7
14 7.12 В 2
{3}
18 км н/о -0.5 -1.5 93 -4 -4 по сезону 995.3 983.4
15 7.12 СВ 3
{4}
30 км 10/10 200 м
[St]
-0.6 -1.7 92 -6 -6 прохладно 994.6 982.7
17 7.12 СВ 4
{5}
30 км в посл. час зёрна н/о -0.8 -2.1 91 -7 -7 по сезону 991.9 980.0
16 7.12 СВ 3
{5}
45 км н/о -0.6 -1.7 92 -6 -6 по сезону 993.8 981.9
18 7.12 СВ 3
{7}
10 км слабый снег 10/10 200 м
[Frnb]
-0.7 -2.0 91 -6 -6 по сезону 991.0 979.1 -0.9 -0.1 0.1
21 7.12 СВ 5
{9}
3000 м слабый снег ?/? -0.2 -1.3 92 -6 -6 по сезону 987.5 975.7 0.7
00 8.12 СВ 7
{12}
1400 м слаб. снег н/о -0.1 -1.2 92 -7 -7 по сезону 984.4 972.6 1
01 8.12 СВ 5
{13}
1900 м слаб. снег н/о +0.2 -1.2 90 -6 -6 по сезону 984.0 972.2 1
02 8.12 С 4
{9}
2300 м слаб. снег н/о +0.3 -1.1 90 -5 -5 по сезону 983.5 971.8 1
03 8.12 С 4
{7}
4000 м слаб. снег н/о +0.2 -1.4 89 -5 -5 по сезону 983.1 971.4 0.3
05 8.12 Ю 1
{5}
8000 м слаб. ледяной дождь н/о -0.1 -1.0 94 -2 -2 тепло 983.1 971.3 0.1
04 8.12 ЮЗ 1
{7}
5000 м слаб. дождь со снегом н/о +0.2 -1.4 89 -2 -2 тепло 982.9 971.2 0.1
06 8.12 ЮВ 1
{13}
6000 м слаб. дождь со снегом н/о -0.4 -1.3 94 -3 -3 по сезону 982.9 971.1 -0.7 +0.4 16
07 8.12 ЮЗ 1
{2}
4800 м слаб. дождь со снегом н/о -0.6 -1.3 95 -3 -3 тепло 983.0 971.2 0.1
08 8.12 штиль 0
{1}
9000 м слаб. снег н/о -0.8 -1.4 96 -2 -2 по сезону 982.9 971.1 0.1
09 8.12 ЮЗ 3
{4}
7000 м слабый снег 10/9 100 м
[Frnb As op]
-0.8 -1.7 94 -6 -6 по сезону 983.1 971.3 0.3
11 8.12 СВ 1
{2}
45 км н/о -0.5 -1.8 91 -3 -3 тепло 982.0 970.2
10 8.12 В 1
{4}
24 км слаб. дождь со снегом н/о -0.7 -1.6 94 -3 -3 по сезону 982.4 970.6 0.1
12 8.12 В 1
{4}
60 км {снег} 9/5 200 м
[St Ac As]
+0.1 -1.8 87 -2 -2 по сезону 981.4 969.7
13 8.12 ЮВ 1
{2}
40 км н/о -0.3 -1.8 90 -2 -2 тепло 980.6 968.9
14 8.12 СВ 1
{2}
30 км н/о -0.3 -1.8 90 -2 -2 по сезону 980.0 968.3
15 8.12 СВ 1
{3}
25 км слабый снег 9/6 600 м
[Sc Ac As]
-0.3 -1.8 90 -2 -2 по сезону 979.3 967.6
17 8.12 СВ 3
{5}
50 км слаб. ливневой дождь н/о -0.2 -2.2 86 -5 -5 тепло 977.9 966.2
16 8.12 СВ 1
{3}
50 км слаб. ливневой дождь н/о -0.3 -2.0 88 -2 -2 по сезону 978.6 966.9
18 8.12 СВ 2
{6}
25 км {снег} 9/6 600 м
[Sc Ac As]
-0.1 -2.2 86 -4 -4 по сезону 977.3 965.6 -1.0 +0.2
19 8.12 СВ 4
{6}
50 км н/о -0.1 -2.2 86 -6 -6 по сезону 976.9 965.2
20 8.12 СВ 3
{7}
50 км н/о 0.0 -2.2 85 -5 -5 по сезону 976.4 964.7
21 8.12 С 2
{5}
25 км 9/4 600 м
[Sc Ac As]
-0.2 -2.4 85 -4 -4 по сезону 975.9 964.2
23 8.12 СВ 3
{4}
50 км н/о 0.0 -2.5 83 -5 -5 тепло 975.7 964.0
22 8.12 С 2
{4}
50 км н/о +0.1 -2.8 81 -3 -3 по сезону 975.8 964.1
00 9.12 ЮЗ 1
{7}
50 км н/о -0.7 -2.4 88 -3 -3 по сезону 975.6 963.9
01 9.12 СВ 2
{3}
50 км н/о -0.8 -2.9 86 -5 -5 тепло 975.5 963.8
02 9.12 С 1
{3}
50 км н/о -0.7 -2.6 87 -3 -3 по сезону 975.9 964.2
03 9.12 штиль 0
{3}
11 км слаб. дождь со снегом н/о -0.6 -2.0 90 -2 -2 по сезону 976.3 964.6
05 9.12 ЮЗ 1
{2}
35 км слаб. дождь со снегом н/о -1.0 -1.7 95 -3 -3 тепло 977.4 965.7
04 9.12 З 1 8000 м слаб. дождь со снегом н/о -0.7 -1.7 93 -3 -3 по сезону 976.8 965.1 0.4
06 9.12 штиль 0
{3}
н/о н/о -1.8 -2.4 96 -3 -3 по сезону 978.1 966.3 -1.8 +0.2
07 9.12 С 1
{3}
45 км н/о -2.3 -3.0 95 -5 -5 тепло 979.3 967.5
08 9.12 СВ 1
{3}
50 км н/о -2.4 -3.3 94 -5 -5 по сезону 980.3 968.5
09 9.12 ЮВ 1
{2}
70 км 8/0
[Ac As Cs]
-2.5 -3.6 92 -5 -5 по сезону 981.5 969.7
11 9.12 ЮЗ 1
{2}
40 км н/о -0.2 -2.2 86 -2 -2 тепло 983.0 971.2
10 9.12 В 1
{2}
35 км н/о -1.7 -3.0 91 -4 -4 по сезону 982.4 970.6
12 9.12 СВ 1
{3}
>70 км 8/1 1500 м
[Sc Ac As Cs]
+0.6 -2.1 82 -1 -1 по сезону 983.4 971.7
13 9.12 СВ 2
{2}
30 км н/о 0.0 -2.1 86 -4 -4 тепло 984.4 972.6
14 9.12 СВ 1
{2}
50 км н/о 0.0 -2.0 86 -2 -2 по сезону 985.4 973.6
15 9.12 СВ 2
{3}
>70 км 9/0
[Ac As Cs]
-0.1 -1.8 88 -4 -4 по сезону 986.3 974.5
17 9.12 СВ 1
{3}
26 км н/о -0.6 -1.9 91 -3 -3 тепло 988.2 976.4
16 9.12 В 1
{3}
45 км н/о -0.1 -1.9 88 -2 -2 тепло 987.3 975.5
18 9.12 штиль 0
{3}
25 км 5/1 600 м
[Sc Ac As Cs]
-1.5 -2.6 92 -3 -3 по сезону 989.2 977.3 -2.5 +0.7
19 9.12 В 1
{2}
19 км н/о -2.8 -3.9 92 -5 -5 тепло 990.0 978.0
20 9.12 ЮЗ 1
{3}
25 км н/о -3.3 -4.3 93 -6 -6 по сезону 990.7 978.7
21 9.12 ЮВ 1
{2}
25 км 1/1 600 м
[Sc]
-3.1 -4.3 91 -5 -5 по сезону 991.4 979.4
23 9.12 СЗ 1
{7}
50 км н/о -1.1 -4.7 77 -3 -3 тепло 992.5 980.6
22 9.12 В 1
{2}
40 км н/о -3.0 -4.8 87 -5 -5 по сезону 992.1 980.1
00 10.12 З 2
{7}
50 км н/о +0.4 -5.0 67 -3 -3 по сезону 992.9 981.0
01 10.12 З 1
{3}
50 км н/о 0.0 -4.3 73 -2 -2 тепло 993.3 981.4
02 10.12 ЮЗ 1
{4}
50 км н/о +0.1 -4.7 70 -2 -2 тепло 993.6 981.7
03 10.12 З 1
{8}
50 км н/о +1.1 -4.9 64 -0 -0 по сезону 993.7 981.9
05 10.12 СЗ 5
{10}
50 км н/о +2.3 -4.6 60 -3 -3 тепло 994.6 982.8
04 10.12 СЗ 5 50 км н/о +2.5 -5.1 57 -2 -2 тепло 993.9 982.1
06 10.12 СВ 1
{10}
н/о н/о +0.8 -4.0 70 -1 -1 по сезону 995.5 983.6 -3.7 +2.7
07 10.12 ЮВ 1
{2}
50 км н/о +0.1 -4.0 74 -2 -2 тепло 996.0 984.1
08 10.12 Ю 1
{2}
50 км н/о 0.0 -3.1 80 -2 -2 по сезону 996.6 984.7
09 10.12 С 2
{5}
>70 км 6/1 1000 м
[Sc Ac As Cs]
+1.5 -3.7 68 -2 -2 по сезону 997.4 985.5
11 10.12 С 5
{11}
50 км н/о +4.6 -3.1 57 0 0 тепло 998.9 987.2
10 10.12 С 5
{9}
50 км н/о +4.7 -3.3 56 +1 +1 тепло 998.0 986.3
12 10.12 С 7
{17}
>70 км 6/1 1000 м
[Sc Ac As Cs]
+4.7 -3.3 56 -0 -0 по сезону 999.9 988.1
13 10.12
{15}
50 км н/о +4.6 -3.1 57 1001.1 989.3
14 10.12 С 7
{13}
50 км н/о +4.8 -3.4 55 -0 -0 тепло 1002.3 990.5
15 10.12 С 6
{13}
>70 км 6/1 1000 м
[Sc Ac As Cs]
+4.4 -3.3 57 -0 -0 по сезону 1004.0 992.2
17 10.12 С 5
{11}
50 км н/о +4.3 -3.4 57 -0 -0 тепло 1006.1 994.3
16 10.12 С 5
{14}
50 км н/о +4.4 -3.3 57 0 0 тепло 1005.3 993.5
18 10.12 С 4
{15}
>70 км 6/1 1000 м
[Sc Ac As Cs]
+4.1 -3.4 58 0 0 по сезону 1007.2 995.3 -0.2 +5.1
19 10.12 С 5
{10}
50 км н/о +4.0 -3.3 59 -1 -1 тепло 1008.3 996.4
20 10.12
{11}
50 км н/о +4.0 -3.5 58 1009.2 997.3
21 10.12 С 5
{10}
>70 км 4/0
[Ac As Ci fib]
+4.1 -3.6 57 -0 -0 по сезону 1010.2 998.3
23 10.12 С 5
{12}
50 км н/о +4.4 -3.3 57 0 0 тепло 1012.3 1000.4
22 10.12 С 3
{9}
50 км н/о +3.9 -3.8 57 +1 +1 тепло 1011.1 999.2
00 11.12 С 5
{12}
50 км н/о +4.2 -3.3 58 -0 -0 тепло 1013.1 1001.2
01 11.12
{12}
50 км н/о +4.6 -3.4 56 1014.1 1002.2
02 11.12 С 4
{11}
50 км н/о +4.1 -3.2 59 0 0 тепло 1015.1 1003.1
03 11.12 СВ 3
{7}
50 км н/о +3.7 -3.1 61 0 0 тепло 1015.9 1003.9
05 11.12 С 5
{8}
50 км н/о +3.4 -3.6 60 -1 -1 тепло 1017.7 1005.7
04 11.12 С 2
{7}
50 км н/о +3.1 -3.4 62 +1 +1 тепло 1016.8 1004.8
06 11.12 С 6
{12}
н/о н/о +3.5 -4.2 57 -2 -2 по сезону 1018.4 1006.4 +2.8 +4.6
07 11.12 С 5
{9}
50 км н/о +3.0 -4.2 59 -2 -2 тепло 1019.7 1007.6
08 11.12 С 5
{10}
50 км н/о +2.9 -4.5 58 -2 -2 тепло 1020.2 1008.1
09 11.12 С 5
{9}
50 км н/о +3.0 -4.4 58 -2 -2 по сезону 1021.5 1009.4
11 11.12 С 7
{12}
50 км н/о +4.0 -4.2 55 -1 -1 тепло 1022.4 1010.4
10 11.12 С 4
{8}
50 км н/о +3.7 -4.0 57 -0 -0 тепло 1022.3 1010.2
12 11.12 СВ 3
{12}
50 км н/о +3.8 -4.1 56 +1 +1 по сезону 1023.1 1011.0
13 11.12 С 5
{7}
н/о н/о +3.3 -4.1 58 -1 -1 тепло 1023.8 1011.7
14 11.12 С 6
{11}
н/о н/о +3.0 -4.2 59 -2 -2 тепло 1024.0 1011.9
15 11.12 н/о н/о 1025.1 1012.9
17 11.12
{7}
н/о н/о +1.7 -4.1 65 1026.1 1013.9
16 11.12 С 5
{8}
н/о н/о +2.1 -4.2 63 -3 -3 по сезону 1025.5 1013.3
18 11.12 СЗ 1
{11}
>70 км 3/0
[Ac As Ci fib]
+0.1 -4.7 70 -2 -2 по сезону 1026.9 1014.6 +0.1 +4.6
19 11.12 СВ 2
{6}
н/о н/о +0.6 -4.2 70 -3 -3 тепло 1027.3 1015.0
20 11.12 СВ 1 50 км н/о -0.8 -3.8 80 -3 -3 по сезону 1027.7 1015.4
21 11.12 СВ 2
{3}
70 км 3/0
[Ac As Ci fib]
-0.3 -3.7 78 -4 -4 по сезону 1028.2 1015.9
23 11.12 СВ 1
{3}
50 км н/о -1.2 -3.9 82 -3 -3 тепло 1029.0 1016.6
22 11.12 В 2
{4}
50 км н/о -0.4 -4.2 75 -4 -4 по сезону 1028.5 1016.2
00 12.12 СВ 2
{6}
50 км н/о -1.4 -3.9 83 -5 -5 по сезону 1029.3 1016.9
01 12.12 СЗ 1
{4}
50 км н/о -1.9 -4.5 82 -4 -4 тепло 1029.8 1017.4
02 12.12 Ю 2
{3}
50 км н/о -2.2 -4.3 85 -6 -6 по сезону 1030.3 1017.9
03 12.12 СВ 1
{2}
50 км н/о -2.3 -4.8 83 -4 -4 по сезону 1030.7 1018.3
05 12.12 СВ 2
{3}
50 км н/о -3.3 -5.2 87 -7 -7 тепло 1031.4 1018.9
04 12.12 СЗ 1
{2}
50 км н/о -3.3 -4.8 89 -6 -6 тепло 1031.2 1018.7
06 12.12
{4}
н/о н/о -4.5 -6.3 87 1031.8 1019.3 -4.5 +1.3
07 12.12 СВ 2
{3}
50 км н/о -4.1 -6.0 87 -8 -8 по сезону 1032.2 1019.7
08 12.12 СВ 1
{4}
50 км н/о -4.6 -6.4 87 -7 -7 по сезону 1032.7 1020.1
09 12.12 СВ 2
{2}
50 км н/о -4.5 -6.4 87 -9 -9 прохладно 1033.1 1020.5
11 12.12 СВ 2
{2}
50 км н/о -2.4 -5.3 80 -6 -6 по сезону 1033.5 1021.0
10 12.12 штиль 0
{3}
50 км н/о -3.3 -5.9 82 -4 -4 по сезону 1033.4 1020.9
12 12.12 В 1
{4}
>70 км 1/0
[Ac lent]
-1.5 -4.9 78 -3 -3 по сезону 1033.3 1020.9
13 12.12 СВ 1
{2}
50 км н/о -1.8 -5.0 79 -4 -4 тепло 1033.4 1021.0
14 12.12 С 1
{2}
50 км н/о -2.6 -5.4 81 -5 -5 по сезону 1033.7 1021.2
15 12.12 СВ 2
{4}
>70 км 1/0
[Ac lent]
-3.4 -5.7 84 -7 -7 прохладно 1033.9 1021.4
17 12.12 СВ 3
{4}
50 км н/о -5.0 -6.6 89 -11 -11 по сезону 1034.4 1021.8
16 12.12 СВ 2
{3}
50 км н/о -4.4 -6.2 87 -9 -9 по сезону 1034.1 1021.5
18 12.12 В 2
{4}
>70 км 1/1 300 м
[Sc]
-5.1 -6.8 88 -9 -9 прохладно 1034.8 1022.2 -5.2 -1.4
19 12.12 С 3
{4}
35 км н/о -5.5 -6.8 91 -11 -11 по сезону 1035.1 1022.5
20 12.12 СВ 3
{5}
н/о н/о -4.8 -6.0 91 -10 -10 по сезону 1035.4 1022.8
21 12.12 СВ 3
{5}
9000 м дымка 9/9 200 м
[St]
-4.6 -6.1 89 -10 -10 прохладно 1035.4 1022.8
23 12.12 С 2
{5}
н/о н/о -5.9 -7.8 86 -10 -10 по сезону 1035.9 1023.2
22 12.12 СВ 3
{5}
н/о н/о -5.4 -7.3 86 -11 -11 по сезону 1035.4 1022.8
00 13.12 С 2
{5}
н/о н/о -5.7 -7.0 91 -10 -10 прохладно 1036.0 1023.4
01 13.12 СВ 3
{5}
н/о н/о -6.4 -8.1 88 -12 -12 по сезону 1036.0 1023.3
02 13.12 СВ 2
{4}
н/о н/о -6.5 -8.8 84 -11 -11 по сезону 1036.2 1023.5
03 13.12 С 3
{5}
50 км н/о -6.5 -8.4 86 -12 -12 холодно 1036.0 1023.3
05 13.12 С 3 9000 м в посл. час зёрна н/о -5.8 -7.4 88 -11 -11 по сезону 1035.3 1022.7 0.1
04 13.12 С 3
{6}
2100 м дымка н/о -6.1 -7.7 88 -12 -12 по сезону 1035.6 1022.9 0.3
06 13.12 С 3
{6}
25 км 10/10 50 м
[St]
-5.5 -7.1 88 -11 -11 холодно 1035.4 1022.8 -6.7 -4.6
07 13.12 СВ 4 5000 м дымка н/о -5.7 -7.4 88 -12 -12 по сезону 1035.7 1023.1
08 13.12 СВ 4
{5}
10 км н/о -5.9 -7.6 88 -12 -12 прохладно 1036.0 1023.3
09 13.12 С 4
{6}
8000 м туман на расстоянии 10/10 <50 м
[St]
-6.3 -7.9 88 -13 -13 очень
холодно
1036.0 1023.3 0.5
11 13.12 СВ 3
{7}
19 км н/о -6.2 -7.9 88 -12 -12 по сезону 1036.1 1023.4
10 13.12 С 4
{6}
50 км в посл. час зёрна н/о -6.3 -8.3 86 -13 -13 холодно 1036.1 1023.4 0.1
12 13.12 С 3
{7}
25 км {туман} 10/10 50 м
[St]
-6.1 -8.2 85 -12 -12 очень
холодно
1036.0 1023.3
13 13.12 С 2
{5}
50 км н/о -5.8 -7.9 85 -10 -10 по сезону 1035.7 1023.1
14 13.12 СВ 3
{5}
н/о н/о -6.0 -8.8 81 -12 -12 прохладно 1035.7 1023.0
15 13.12 СВ 3
{5}
30 км 9/9 200 м
[St]
-6.3 -9.1 80 -12 -12 холодно 1035.8 1023.1
17 13.12 С 3
{5}
50 км н/о -6.7 -9.1 83 -12 -12 по сезону 1036.0 1023.3
16 13.12 С 3
{6}
50 км н/о -6.9 -9.7 80 -13 -13 прохладно 1036.0 1023.3
18 13.12 С 3
{6}
8000 м осадки на расстоянии 10/10 200 м
[St]
-6.8 -9.1 84 -12 -12 холодно 1036.0 1023.3 -7.0 -5.5
19 13.12 СВ 2
{5}
50 км н/о -6.7 -9.2 82 -11 -11 по сезону 1035.9 1023.2
20 13.12 С 2
{4}
35 км н/о -6.8 -9.2 83 -11 -11 по сезону 1036.1 1023.4
21 13.12 СВ 2
{4}
6000 м осадки на расстоянии 10/10 200 м
[St]
-6.9 -9.6 81 -11 -11 холодно 1036.3 1023.6
22 13.12 СВ 3
{5}
50 км н/о -7.2 -9.9 81 -13 -13 очень
холодно
1036.2 1023.5

 

Местоположение метеостанции Oslo (Норвегия): широта 59.94 долгота 10.72 высота над уровнем моря 94 м.

В архиве по умолчанию представлена погода в Oslo за последнюю неделю. Архивные данные за месяц целиком и за предыдущие месяцы, начиная с января 2011 года, Вы можете получить, выбрав интересующий диапазон дат из раскрывающегося списка и нажав кнопку "Ввод!".


*Определитесь, кто Вы:
робот инопланетянин человек

Внимание! Время в таблицах - всемирное. Для получения местного времени необходимо прибавить поправку, которая в Oslo равна 1 ч.

Смотрите также архив погоды в соседних городах и на ближайших метеорологических станциях:

Погода в Tryvasshogda (Норвегия) (5 км)
Погода в Bjornholt (Норвегия) (12 км)
Погода в Kjeller (Норвегия) (18 км)
Погода в Asker (Норвегия) (19 км)
Погода в Hakadal Jernbanestasjon (Норвегия) (21 км)
Погода в As (Норвегия) (31 км)
Погода в Oslo Lifthavn (Норвегия) (36 км)
Погода в Honefoss-Hoyby (Норвегия) (37 км)
Погода в Drammen Berskog (Норвегия) (40 км)
Погода в Konnerud (Норвегия) (41 км)

Пояснения к столбцам:

Ветер - указаны скорость ветра в м/с - средняя за 10 мин, порывы в срок и между сроками (в фигурных скобках) и направление, откуда дует ветер: С - северный, СВ - северо-восточный, В - восточный, ЮВ - юго-восточный, Ю - южный, ЮЗ - юго-западный, З - западный, СЗ - северо-западный.
Видимость - горизонтальная дальность видимости в метрах или километрах. При видимости от 1 до 10 км при отсутствии осадков обычно наблюдается дымка, при ухудшении видимости до 1 км и менее - туман. В сухую погоду видимость может ухудшаться дымом, пылью или мглою.
Явления - указаны атмосферные явления, наблюдавшиеся в срок или в последний час перед сроком; фигурными скобками обозначены явления, наблюдавшиеся между сроками (за 1-3 часа до срока); квадратными скобками обозначены град или гололедные отложения с указанием их диаметра в мм.
Облачность - указаны через наклонную черту общая и нижняя облачность в баллах и высота нижней границы облаков в метрах; квадратными скобками обозначены формы облаков: Ci - перистые, Cs - перисто-слоистые, Cc - перисто-кучевые, Ac - высококучевые, As - высокослоистые, Sc - слоисто-кучевые, Ns - слоисто-дождевые, Cu - кучевые, Cb - кучево-дождевые. Подробнее классификацию облаков см. в Атласе облаков (PDF).
T - Температура воздуха - температура, измеренная на высоте 2 м над землей.
Td - Температура точки росы - температура, при понижении до которой содержащийся в воздухе водяной пар достигнет насыщения.
f - Относительная влажность воздуха - влажноcть воздуха, измеренная на высоте 2 м над землей.
Te - Эффективная температура - температура, которую ощущает одетый по сезону человек в тени. Характеристика душности погоды. При расчете учитывается влияние влажности воздуха и скорости ветра на теплоощущения человека.
Tes - Эффективная температура на солнце - температура, которую ощущает человек, с поправкой на солнечный нагрев. Характеристика знойности погоды. Зависит от высоты солнца над горизонтом, облачности и скорости ветра. Ночью, в пасмурную погоду, а также при ветре 12 м/с и более поправка равна нулю.
P - Атмосферное давление - приведенное к уровню моря атмосферное давление.
Po - Атмосферное давление - измеренное на уровне метеостанции атмосферное давление.
Tmin - Минимальная температура - минимум температуры воздуха на высоте 2 м над землей.
Tmax - Максимальная температура - максимум температуры воздуха на высоте 2 м над землей.
R - Количество осадков - Количество выпавших осадков за период времени, мм. При наведении курсора мыши на число - период времени, за который выпало указанное количество осадков.
R24 - Количество осадков - Количество выпавших осадков за 24 часа, мм.
S - Снежный покров - Высота снежного покрова, см. При наведении курсора мыши на число - состояние снежного покрова и степень покрытия местности в баллах.